Terminal Aerodrome Forecast
Issued by NWS Wilmington, OH

Current Version | Previous Version | Graphics & Text | Print | Product List | Glossary On
Versions: 1 2 3 4 5 6 7 8 9 10 11 12 13 14 15 16 17 18 19 20 21 22 23 24 25 26 27 28 29 30 31
000
FTUS41 KILN 151513 AAA
TAFDAY
TAF AMD
KDAY 151513Z 1515/1612 07006KT 4SM BR FEW003 BKN040
     FM160000 09004KT P6SM SCT012 OVC050
     FM160400 08004KT 3SM BR VCSH OVC010=

USA.gov is the U.S. government's official web portal to all federal, state and local government web resources and services.